Flag for South Africa Weather past 2 weeks in Pretoria, South Africa

Now
84 °F

Pleasantly warm.


Feels Like: 83 °F
Forecast: 66 / 88 °F
Wind: 10 mph from Northwest

Location: Waterkloof Lmb

Current Time: Jan 25, 2015 at 1:11:05 PM

Latest Report: Jan 25, 2015 at 12:00 PM


Visibility: N/A

Pressure: 30.12 "Hg

Humidity: 37%

Dew point: 55 °F

Location of PretoriaLocation

Historic Weather in Pretoria — Graph

°F

Pretoria temperature yesterday

Maximum temperature yesterday: 86 °F (at 1:00 PM)
Minimum temperature yesterday: 66 °F (at 4:00 AM)
Average temperature yesterday: 76 °F

Past Weeks' High & Low Weather Summary

 TemperatureHumidityPressure
High90 °F (Jan 22, 3:00 PM)100% (Jan 14, 9:00 AM)30.36 "Hg (Jan 14, 9:00 AM)
Low59 °F (Jan 23, 4:00 AM)29% (Jan 11, 2:00 PM)30.04 "Hg (Jan 13, 6:00 PM)
Average74 °F61%30.19 "Hg
* Reported Jan 10 12:00 Noon — Jan 25 12:00 Noon, Pretoria, Weather by CustomWeather, © 2014

Note: Actual official high and low records may vary slightly from our data, if they occured in-between our weather recording intervals... More about our weather records

Advertising

Pretoria weather history for previous 24 hours

 ConditionsComfort  
Time TempWeatherWind HumidityBarometerVisibility
12:00 PM
Jan 25
84 °FPleasantly warm.10 mph37%30.12 "HgN/A
11:00 AM82 °FPleasantly warm.9 mph40%30.12 "HgN/A
10:00 AM81 °FWarm.8 mph45%30.12 "HgN/A
9:00 AM77 °FWarm.7 mph47%30.15 "HgN/A
8:00 AM72 °FMild.8 mph61%30.15 "HgN/A
7:00 AM70 °FMild.7 mph60%30.15 "HgN/A
6:00 AM66 °FMild.8 mph68%30.12 "HgN/A
5:00 AM66 °FMild.7 mph64%30.12 "HgN/A
4:00 AM68 °FMild.6 mph60%30.12 "HgN/A
3:00 AM70 °FMild.9 mph57%30.09 "HgN/A
2:00 AM72 °FMild.6 mph53%30.09 "HgN/A
1:00 AM75 °FMild.5 mph44%30.09 "HgN/A
12:00 AM73 °FMild.6 mph47%30.12 "HgN/A
11:00 PM
Jan 24
73 °FMild.6 mph50%30.09 "HgN/A
9:00 PM75 °FMild.6 mph54%30.09 "HgN/A
8:00 PM77 °FWarm.7 mph51%30.09 "HgN/A
7:00 PM79 °FWarm.5 mph54%30.07 "HgN/A
6:00 PM82 °FWarm.5 mph45%30.07 "HgN/A
5:00 PM84 °FWarm.6 mph43%30.07 "HgN/A
4:00 PM84 °FWarm.3 mph43%30.07 "HgN/A
3:00 PM86 °FWarm.5 mph40%30.09 "HgN/A
2:00 PM84 °FWarm.5 mph43%30.12 "HgN/A
1:00 PM86 °FWarm.3 mph40%30.15 "HgN/A
Weather by CustomWeather, © 2014

See weather overviewHow to use our weather pages